Weather History for De Queen, AR

Change the Weather History Date:

Sunday, September 9, 2012

  Actual Average Record
Temperature  
Mean Temperature 70 °F 76 °F  
Max Temperature 92 °F 89 °F 102 °F (1954)
Min Temperature 48 °F 64 °F 46 °F (1956)
Degree Days  
Heating Degree Days 0 0  
Month to date heating degree days 0 0  
Since 1 July heating degree days 0 0  
Cooling Degree Days 5 12  
Month to date cooling degree days 166 117  
Year to date cooling degree days 1918 1709  
Growing Degree Days 20 (Base 50)    
Moisture  
Dew Point 50 °F    
Average Humidity 60    
Maximum Humidity 100    
Minimum Humidity 20    
Precipitation  
Precipitation 0.00 in 0.13 in 1.62 in (1951)
Month to date precipitation 0.32 1.05  
Year to date precipitation 21.10 32.64  
Snow  
Snow 0.00 in - - ()
Month to date snowfall 0.0  
Since 1 July snowfall 0.0  
Since 1 September snowfall 0.0  
Snow Depth 0.00 in    
Sea Level Pressure  
Sea Level Pressure 30.06 in    
Wind  
Wind Speed 1 mph (ESE)    
Max Wind Speed 10 mph    
Max Gust Speed 15 mph    
Visibility 7 miles    
Events Fog    
T = Trace of Precipitation, MM = Missing Value Source: NWS Daily Summary

Daily Weather History Graph

Daily Weather History Graph

Search for Another Location

Airport:

Trip Planner

Search our weather history database for the weather conditions in past years. The results will help you decide how hot, cold, wet, or windy it might be!

Date:

Astronomy

Sep. 09, 2012 Rise Set
Actual Time 6:57 AM CDT 7:31 PM CDT
Civil Twilight 6:31 AM CDT 7:56 PM CDT
Nautical Twilight 6:02 AM CDT 8:26 PM CDT
Astronomical Twilight 5:31 AM CDT 8:56 PM CDT
Moon 12:38 AM CDT (9/9) 3:06 PM CDT (9/9)
Length of Visible Light 13h 25m
Length of Day
12h 34m
Last Quarter, 39% of the Moon is Illuminated
Sep 9
Last Quarter
Sep 15
New
Sep 22
First Quarter
Sep 29
Full
Oct 8
Last Quarter

Hourly Weather History & Observations

Time (CDT) Temp. Dew Point Humidity Pressure Visibility Wind Dir Wind Speed Gust Speed Precip Events Conditions
12:53 AM 55.0 °F 53.1 °F 93% 30.05 in 10.0 mi Calm Calm - N/A   Clear
1:53 AM 53.1 °F 51.1 °F 93% 30.04 in 8.0 mi Calm Calm - N/A   Clear
2:42 AM 51.8 °F 51.8 °F 100% 30.05 in 1.8 mi Calm Calm - N/A   Clear
2:53 AM 51.1 °F 50.0 °F 96% 30.04 in 2.0 mi Calm Calm - N/A   Clear
3:09 AM 51.8 °F 50.0 °F 94% 30.05 in 7.0 mi Calm Calm - N/A   Clear
3:17 AM 50.0 °F 48.2 °F 94% 30.06 in 1.8 mi Calm Calm - N/A   Clear
3:33 AM 51.8 °F 50.0 °F 94% 30.06 in 3.0 mi Calm Calm - N/A   Clear
3:53 AM 51.1 °F 50.0 °F 96% 30.05 in 10.0 mi Calm Calm - N/A   Clear
4:47 AM 50.0 °F 48.2 °F 94% 30.07 in 3.0 mi Calm Calm - N/A   Clear
4:53 AM 50.0 °F 48.9 °F 96% 30.06 in 4.0 mi Calm Calm - N/A   Clear
5:09 AM 48.2 °F 48.2 °F 100% 30.07 in 1.8 mi Calm Calm - N/A   Clear
5:41 AM 48.2 °F 48.2 °F 100% 30.08 in 0.5 mi Calm Calm - N/A Fog Fog
5:47 AM 48.2 °F 48.2 °F 100% 30.08 in 2.5 mi Calm Calm - N/A   Clear
5:53 AM 48.9 °F 48.0 °F 97% 30.07 in 7.0 mi Calm Calm - N/A   Clear
6:53 AM 48.0 °F 46.9 °F 96% 30.09 in 6.0 mi Calm Calm - N/A   Clear
7:53 AM 52.0 °F 50.0 °F 93% 30.10 in 10.0 mi Calm Calm - N/A   Clear
8:53 AM 62.1 °F 55.9 °F 80% 30.12 in 10.0 mi Calm Calm - N/A   Clear
9:53 AM 71.1 °F 57.9 °F 63% 30.13 in 10.0 mi Calm Calm - N/A   Clear
11:53 AM 82.9 °F 46.9 °F 28% 30.11 in 10.0 mi NE 5.8 mph - N/A   Clear
12:53 PM 87.1 °F 46.0 °F 24% 30.09 in 10.0 mi NE 5.8 mph - N/A   Clear
1:53 PM 88.0 °F 44.1 °F 22% 30.06 in 10.0 mi Calm Calm - N/A   Clear
2:53 PM 89.1 °F 45.0 °F 22% 30.03 in 10.0 mi Calm Calm - N/A   Clear
3:53 PM 91.0 °F 44.1 °F 20% 30.01 in 10.0 mi ESE 5.8 mph - N/A   Clear
4:53 PM 91.0 °F 46.9 °F 22% 29.99 in 10.0 mi Calm Calm - N/A   Clear
5:53 PM 88.0 °F 50.0 °F 27% 29.99 in 10.0 mi SSW 8.1 mph - N/A   Clear
6:53 PM 84.9 °F 48.9 °F 29% 30.00 in 10.0 mi South 3.5 mph - N/A   Clear
7:53 PM 73.9 °F 55.9 °F 53% 30.00 in 10.0 mi Calm Calm - N/A   Clear
8:53 PM 66.0 °F 57.9 °F 75% 30.03 in 10.0 mi Calm Calm - N/A   Clear
9:53 PM 64.9 °F 57.0 °F 75% 30.04 in 10.0 mi Calm Calm - N/A   Clear
10:53 PM 62.1 °F 57.0 °F 84% 30.04 in 10.0 mi Calm Calm - N/A   Clear
11:53 PM 57.9 °F 55.9 °F 93% 30.05 in 10.0 mi Calm Calm - N/A   Clear